Tracking 21094 objects as of 12-Aug-2020
HD Live streaming from Space Station
objects crossing your sky now
Track the most recent launched group of Starlink satellites

SL-8 R/B

Track SL-8 R/B now!
10-day predictions


NORAD ID: 17160
Int'l Code: 1986-093B
Perigee: 961.3 km
Apogee: 1,018.9 km
Inclination: 82.9 °
Period: 104.8 minutes
Semi major axis: 7361 km
RCS: 4.5547 m2 (large)
Launch date: November 24, 1986
Source: Commonwealth of Independent States (former USSR) (CIS)
Launch site: PLESETSK MISSILE AND SPACE COMPLEX (PKMTR)

Note: This is a ROCKET BODY
aabbcc
Your satellite tracking list
Your tracking list is empty




NASA's NSSDC Master Catalog

Two Line Element Set (TLE):
1 17160U 86093B   20225.16293598  .00000008  00000-0 -78777-5 0  9995
2 17160  82.9273 289.6911 0039085 176.3784 239.2750 13.74642803691131
Source of the keplerian elements: AFSPC